Regional Weather Roundup
Issued by NWS

Home | Current Version | Previous Version | Text Only | Print | Product List | Glossary Off
Versions: 1 2 3 4 5 6 7 8 9 10 11 12 13 14 15 16 17 18 19 20 21 22 23 24 25 26 27 28 29 30 31 32 33 34 35 36 37 38 39 40 41 42 43 44 45 46 47 48 49 50

344
ASUS43 KLSX 221257
RWRMO

WEATHER SUMMARY FOR MISSOURI
NATIONAL WEATHER SERVICE SPRINGFIELD MO
700 AM CST WED FEB 22 2017

NOTE: "FAIR" INDICATES FEW OR NO CLOUDS BELOW 12,000 FEET WITH NO
       SIGNIFICANT WEATHER AND/OR OBSTRUCTIONS TO VISIBILITY.
       CURRENT SKY AND/OR WEATHER CONDITIONS ARE NOT AVAILABLE FOR
       CHILLICOTHE AND FARMINGTON.

MOZ001>031-035>038-043-044-053-054-221400-
...NORTHERN AND WESTERN MISSOURI...

CITY           SKY/WX    TMP DP  RH WIND       PRES   REMARKS
KANSAS CTY INT MOCLDY    51  39  63 S12       29.76F
LEE`S SUMMIT   FAIR      52  45  77 S13       29.80F
ST JOSEPH      FAIR      42  34  73 S7        29.75F
CHILLICOTHE      N/A     45  43  93 CALM      29.79F
KIRKSVILLE     MOCLDY    51  51 100 SW7       29.81S FOG

$$
MOZ066>068-077>081-088>096-101>105-221400-
...SOUTHWEST MISSOURI...

CITY           SKY/WX    TMP DP  RH WIND       PRES   REMARKS
SPRINGFIELD    CLOUDY    54  54 100 S9        29.88S FOG
JOPLIN         FOG       51  51 100 SE9       29.86S VSB<1/4
BRANSON        CLOUDY    54  54 100 CALM      29.90F

$$
MOZ032>034-039>042-045>050-055>058-069>072-221400-
...CENTRAL MISSOURI...

CITY           SKY/WX    TMP DP  RH WIND       PRES   REMARKS
COLUMBIA       NOT AVBL
JEFFERSON CITY FOG       53  52  96 S8        29.86F VSB 3/4
ROLLA          FOG       52  52 100 S8        29.87F VSB 1/4
SEDALIA        FOG       54  53  97 S10       29.85S VSB 1/2
WHITEMAN AFB   FOG       50  50 100 S12       29.82F VSB 0
WARRENSBURG    FAIR      45  45 100 S7        29.82F FOG

$$
MOZ051-052-059>065-221400-
...EAST CENTRAL MISSOURI...

CITY           SKY/WX    TMP DP  RH WIND       PRES   REMARKS
ST LOUIS INTL  FOG       54  52  93 SW8       29.88S VSB 1/4

$$
MOZ072>076-082>087-097>100-106>115-221400-
...SOUTH CENTRAL AND SOUTHEAST MISSOURI...

CITY           SKY/WX    TMP DP  RH WIND       PRES   REMARKS
CAPE GIRARDEAU CLOUDY    56  54  93 N3        29.91R FOG
POPLAR BLUFF   CLOUDY    57  57 100 N3        29.90R FOG
WEST PLAINS    CLOUDY    54  54 100 W5        29.92S FOG

$$



USA.gov is the U.S. government's official web portal to all federal, state and local government web resources and services.